{"data":{"norad_id":49293,"intl_designator":"2021-090Q","name":"ONEWEB-0367","alt_names":[],"object_type":"PAYLOAD","status":"ACTIVE","operator":null,"country":"UK","launch_date":"2021-10-14","launch_site_code":"VOSTO","launch_vehicle":null,"mission":null,"orbit_class":"UNKNOWN","rcs_meters":null,"size_class":null,"mass_kg":null,"dimensions":null,"purposes":["comms"],"wikipedia_slug":null,"has_3d_model":false,"image_url":null,"decayed_at":null,"tle_current":{"epoch":"2026-05-24T21:44:24.713376Z","epoch_age_seconds":82491,"freshness":"FRESH","line1":"1 49293U 21090Q   26144.90584159 -.00000076  00000+0 -21826-3 0  9993","line2":"2 49293  87.9178 279.0818 0001723 102.0099 258.1228 13.20771554226753","mean_motion":13.20771554,"eccentricity":0.0001723,"inclination_deg":87.9178,"raan_deg":279.0818,"arg_perigee_deg":102.0099,"mean_anomaly_deg":258.1228,"bstar":-0.00021826,"rev_number":22675,"period_min":109.02718154695,"perigee_km":1180.4717880704,"apogee_km":1183.0769335253,"semimajor_km":7559.9113607978,"source":"CELESTRAK","updated_at":"2026-05-25T13:38:22.522278Z"}}}